BREEZE-M DEB, 38592

Orbit data source: Space-Track

BREEZE-M DEB, 38592 is space debris in HEO originally from a launch on Fri, 14 Mar 2008 UTC launched from the Tyuratam Missile And Space Complex (TTMTR). Debris objects in space refer to the collection of defunct objects orbiting the Earth. Examples of debris include non-operational satellites, rocket bodies, and fragments generated from explosions, collisions, or faulty payload assembly.

Loading next visibility...
Identifier
38592, 2008-011AP
Orbit
HEO
Country
Flag of CISCIS
Related business
Manufacturer
Unknown
Mission
Spacecraft
Bus & Motor
Unknown
Mass
Unknown
Launch date (UTC)
2008-03-14 (18 years ago)
Launch vehicle
Unknown
Launch site
Tyuratam Missile And Space Complex (TTMTR)
Object type
Payload
Rocket body
Debris
Shape & HBR
Unknown shape, 0.4 m
Radar Cross Section
Medium (>0.1 m² and <1 m²)

Expand to show TLE details & history
Last TLE update: 3 days ago

TLE from 3 days ago
0 BREEZE-M DEB
1 38592U 08011AP  26170.36018601 -.00000399  00000-0 -56651-2 0  9996
2 38592  48.7233 234.1786 6382179  12.8415   7.6108  3.16087602171457
Epoch: 2026-06-19T08:38Z
TLE epoch observation values (Epoch: 2026-06-19T08:38:40.071Z)
Latitude
37.73391°
Longitude
-120.57109°
Altitude
1,477.097 km
Speed
9.014 km/s
True Right ascension
18h 26m 44s
True Declination
37° 34' 58"
Sunlit
Object was in daylight at epoch
Visualization orbit readout
Latitude
Unknown
Longitude
Unknown
Altitude
Unknown
Speed
Unknown
Apparent Right ascension
Unknown
Apparent Declination
Unknown
Sunlit
N/A
Visualization observer readout
Local Sidereal Time
01:45:31
Azimuth
Unknown
Elevation
Unknown
Doppler factor
Unknown
Orbital elements
Apogee altitude
25,752.459 km
Perigee altitude
717.546 km
Semi-major axis
19,613.14 km
Eccentricity
0.63822
Inclination
48.7233°
RAAN
234.1786°
Arg. of periapsis
12.8415°
True anomaly
41.69686°
Mean anomaly
7.6108°
Eccentric anomaly
20.29318°
Mean motion
0.79017 °/min
Orbital period
455.6 mins
BSTAR
-0.0056651
Loading maneuver chart data...
Computing Atmospheric mass density...
Loading historical data...
Loading historical data...
Loading historical data...
Loading historical data...
Loading historical data...
Loading historical data...
Loading historical data...

Documentation

Showing up to 5 results
|